Le nostre stazioni meteo in Italia

Pubblicità
Il mio iltempo24.it
Edinburgh, Gran Bretagna (3160): Temperatura & dewpoint: 12.01.2020 09:00:00 - 18.01.2020 09:00:00 (GMT)Edinburgh, Gran Bretagna (3160): velocità del vento: 12.01.2020 09:00:00 - 18.01.2020 09:00:00 (GMT)Edinburgh, Gran Bretagna (3160): direzione del vento: 12.01.2020 09:00:00 - 18.01.2020 09:00:00 (GMT)Edinburgh, Gran Bretagna (3160): visibility: 12.01.2020 09:00:00 - 18.01.2020 09:00:00 (GMT)
Data & Tempo tt [°C] td [°C] ff [km/h] ff [kn] dd vv [km]
18.01.2020 09:00:00 2,0 1,0 16 9 OSO 10
18.01.2020 08:00:00 2,0 1,0 16 9 OSO 10
18.01.2020 07:00:00 2,0 1,0 18 10 OSO 10
18.01.2020 06:00:00 1,0 0,0 11 6 OSO 10
18.01.2020 05:00:00 2,0 0,0 16 9 OSO 10
18.01.2020 04:00:00 2,0 0,0 15 8 OSO 10
18.01.2020 03:00:00 2,0 0,0 15 8 OSO 10
18.01.2020 02:00:00 3,0 0,0 18 10 OSO 10
18.01.2020 01:00:00 2,0 0,0 18 10 OSO 10
18.01.2020 00:00:00 2,0 0,0 15 8 OSO 10
17.01.2020 23:00:00 3,0 1,0 16 9 OSO 10
17.01.2020 22:00:00 2,0 1,0 15 8 OSO 10
17.01.2020 21:00:00 4,0 2,0 16 9 OSO 10
17.01.2020 20:00:00 4,0 2,0 16 9 OSO 10
17.01.2020 19:00:00 4,0 2,0 21 11 OSO 10
17.01.2020 18:00:00 4,0 3,0 22 12 OSO 10
17.01.2020 17:00:00 4,0 3,0 18 10 SO 10
17.01.2020 16:00:00 5,0 3,0 18 10 OSO 10
17.01.2020 15:00:00 6,0 3,0 24 13 OSO 10
17.01.2020 14:00:00 6,0 3,0 24 13 SO 10
17.01.2020 13:00:00 6,0 3,0 26 14 SO 10
17.01.2020 12:00:00 5,0 2,0 28 15 SO 10
17.01.2020 11:00:00 4,0 2,0 24 13 SO 10
17.01.2020 10:00:00 3,0 1,0 18 10 SO 10
17.01.2020 09:00:00 2,0 1,0 16 9 SO 10
17.01.2020 08:00:00 1,0 0,0 11 6 OSO 10
17.01.2020 07:00:00 2,0 0,0 13 7 SO 10
17.01.2020 06:00:00 3,0 1,0 9 5 OSO 10
17.01.2020 05:00:00 4,0 1,0 5 3 N 10
17.01.2020 04:00:00 5,0 2,0 18 10 SSO 10
17.01.2020 03:00:00 5,0 2,0 24 13 SO 10
17.01.2020 02:00:00 6,0 3,0 26 14 SO 10
17.01.2020 01:00:00 6,0 3,0 24 13 SO 10
17.01.2020 00:00:00 6,0 3,0 31 17 SO 10
16.01.2020 23:00:00 7,0 3,0 37 20 SO 10
16.01.2020 22:00:00 7,0 4,0 35 19 SO 10
16.01.2020 21:00:00 8,0 5,0 39 21 SO 10
16.01.2020 20:00:00 10,0 8,0 29 16 SO 10
16.01.2020 19:00:00 11,0 8,0 29 16 SSO 10
16.01.2020 18:00:00 10,0 8,0 31 17 SSO 8
16.01.2020 17:00:00 9,0 7,0 26 14 S 10
16.01.2020 16:00:00 9,0 7,0 22 12 SE 9
16.01.2020 15:00:00 8,0 5,0 13 7 ESE 9
16.01.2020 14:00:00 8,0 4,0 18 10 SE 10
16.01.2020 13:00:00 9,0 4,0 28 15 SSE 10
16.01.2020 12:00:00 9,0 5,0 29 16 S 10
16.01.2020 11:00:00 9,0 5,0 24 13 S 10
16.01.2020 10:00:00 9,0 5,0 26 14 S 10
16.01.2020 09:00:00 8,0 5,0 28 15 S 10
16.01.2020 08:00:00 8,0 5,0 28 15 SSO 10
16.01.2020 07:00:00 7,0 5,0 8 4 SSE 10
16.01.2020 06:00:00 5,0 3,0 9 5 OSO 10
16.01.2020 05:00:00 6,0 3,0 26 14 SO 10
16.01.2020 04:00:00 6,0 3,0 26 14 SO 10
16.01.2020 03:00:00 6,0 3,0 34 18 SO 10
16.01.2020 02:00:00 5,0 2,0 28 15 SO 10
16.01.2020 01:00:00 4,0 2,0 24 13 SO 10
16.01.2020 00:00:00 - - - - - -
15.01.2020 23:00:00 6,0 2,0 31 17 OSO 10
15.01.2020 22:00:00 6,0 2,0 29 16 OSO 10
15.01.2020 21:00:00 6,0 2,0 39 21 SO 10
15.01.2020 20:00:00 6,0 2,0 42 23 SO 10
15.01.2020 19:00:00 6,0 2,0 44 24 SO 10
15.01.2020 18:00:00 7,0 2,0 48 26 SO 10
15.01.2020 17:00:00 7,0 2,0 44 24 SO 10
15.01.2020 16:00:00 7,0 2,0 46 25 SO 10
15.01.2020 15:00:00 7,0 2,0 55 30 SO 10
15.01.2020 14:00:00 7,0 2,0 59 32 SO 10
15.01.2020 13:00:00 7,0 2,0 50 27 SO 10
15.01.2020 12:00:00 7,0 2,0 46 25 SO 10
15.01.2020 11:00:00 6,0 2,0 41 22 SO 10
15.01.2020 10:00:00 6,0 2,0 41 22 SO 10
15.01.2020 09:00:00 6,0 1,0 39 21 SSO 10
15.01.2020 08:00:00 5,0 1,0 39 21 SO 10
15.01.2020 07:00:00 5,0 1,0 39 21 SO 10
15.01.2020 06:00:00 5,0 1,0 35 19 SO 10
15.01.2020 05:00:00 4,0 1,0 37 20 SO 10
15.01.2020 04:00:00 4,0 1,0 31 17 SO 10
15.01.2020 03:00:00 4,0 1,0 29 16 SO 10
15.01.2020 02:00:00 4,0 0,0 28 15 SO 10
15.01.2020 01:00:00 4,0 0,0 29 16 SO 10
15.01.2020 00:00:00 4,0 1,0 35 19 SO 10
14.01.2020 23:00:00 4,0 1,0 31 17 SO 10
14.01.2020 22:00:00 4,0 1,0 29 16 SO 10
14.01.2020 21:00:00 4,0 2,0 31 17 SO 10
14.01.2020 20:00:00 4,0 2,0 28 15 SO 10
14.01.2020 19:00:00 4,0 3,0 26 14 SO 10
14.01.2020 18:00:00 4,0 3,0 16 9 SO 10
14.01.2020 17:00:00 4,0 3,0 15 8 SSO 10
14.01.2020 16:00:00 4,0 3,0 8 4 SSO 10
14.01.2020 15:00:00 4,0 3,0 8 4 S 9
14.01.2020 14:00:00 5,0 3,0 16 9 SSO 10
14.01.2020 13:00:00 6,0 2,0 28 15 SSO 10
14.01.2020 12:00:00 6,0 2,0 35 19 SSO 10
14.01.2020 11:00:00 5,0 1,0 24 13 SO 10
14.01.2020 10:00:00 5,0 1,0 22 12 SSO 10
14.01.2020 09:00:00 4,0 1,0 31 17 SO 10
14.01.2020 08:00:00 4,0 0,0 28 15 SO 10
14.01.2020 07:00:00 4,0 0,0 35 19 SO 10
14.01.2020 06:00:00 4,0 0,0 35 19 SO 10
14.01.2020 05:00:00 4,0 -1,0 41 22 SO 10
14.01.2020 04:00:00 4,0 0,0 37 20 SO 10
14.01.2020 03:00:00 5,0 0,0 44 24 SO 10
14.01.2020 02:00:00 5,0 1,0 39 21 SO 10
14.01.2020 01:00:00 5,0 1,0 44 24 SO 10
14.01.2020 00:00:00 5,0 3,0 41 22 OSO 10
13.01.2020 23:00:00 7,0 3,0 41 22 SSO 10
13.01.2020 22:00:00 7,0 3,0 41 22 SSO 10
13.01.2020 21:00:00 8,0 4,0 44 24 SSO 10
13.01.2020 20:00:00 7,0 4,0 41 22 SSO 10
13.01.2020 19:00:00 7,0 4,0 42 23 SSO 9
13.01.2020 18:00:00 8,0 4,0 44 24 SSO 9
13.01.2020 17:00:00 7,0 4,0 41 22 S 8
13.01.2020 16:00:00 7,0 4,0 41 22 S 8
13.01.2020 15:00:00 7,0 4,0 29 16 SSE 10
13.01.2020 14:00:00 7,0 3,0 28 15 SSE 10
13.01.2020 13:00:00 7,0 3,0 26 14 SSE 10
13.01.2020 12:00:00 7,0 3,0 26 14 SSE 10
13.01.2020 11:00:00 7,0 3,0 18 10 S 10
13.01.2020 10:00:00 7,0 3,0 29 16 S 10
13.01.2020 09:00:00 6,0 2,0 22 12 SSO 10
13.01.2020 08:00:00 5,0 2,0 21 11 S 10
13.01.2020 07:00:00 4,0 2,0 18 10 SSO 10
13.01.2020 06:00:00 - - - - - -
13.01.2020 05:00:00 3,0 1,0 15 8 SSO 10
13.01.2020 04:00:00 2,0 1,0 9 5 SSO 10
13.01.2020 03:00:00 3,0 1,0 21 11 SO 10
13.01.2020 02:00:00 2,0 1,0 5 3 - 10
13.01.2020 01:00:00 3,0 2,0 4 2 - 10
13.01.2020 00:00:00 3,0 1,0 15 8 SO 10
12.01.2020 23:00:00 4,0 2,0 24 13 SO 10
12.01.2020 22:00:00 4,0 2,0 24 13 SO 10
12.01.2020 21:00:00 4,0 2,0 21 11 OSO 10
12.01.2020 20:00:00 4,0 2,0 15 8 SO 10
12.01.2020 19:00:00 3,0 2,0 13 7 SO 10
12.01.2020 18:00:00 3,0 2,0 18 10 OSO 10
12.01.2020 17:00:00 4,0 2,0 21 11 OSO 10
12.01.2020 16:00:00 4,0 2,0 22 12 OSO 10
12.01.2020 15:00:00 5,0 3,0 18 10 SO 10
12.01.2020 14:00:00 6,0 3,0 18 10 OSO 10
12.01.2020 13:00:00 6,0 4,0 21 11 OSO 10
12.01.2020 12:00:00 6,0 4,0 18 10 OSO 10
12.01.2020 11:00:00 6,0 4,0 18 10 O 10
12.01.2020 10:00:00 5,0 4,0 15 8 SO 10
12.01.2020 09:00:00 4,0 4,0 18 10 SO 10

tt = Temperatura
td = dewpoint
ff = velocità del vento
dd = direzione del vento
vv = visibility

Stazioni seguenti

WeatherPro
AMSI
MeteoEarth